Location: Unspecified
(35.7250°N, 0.0000°E)
Time: 00:37:07
(UTC+00:00)

Vanguard 1 - Pass Details

Date: 29 June 2019
Orbit: 655 x 3829 km, 34.2° (Epoch: 17 August)

Event Time Altitude Azimuth Distance (km) Brightness Sun altitude
Rises 03:24:33 0° 268° (W) 7,793 14.2 -14.2°
Reaches altitude 10° 03:30:17 10° 268° (W) 6,516 13.8 -13.4°
Maximum altitude 03:49:50 85° 184° (S) 2,352 11.9 -10.4°
Drops below altitude 10° 04:00:13 10° 97° (E) 3,740 13.8 -8.7°
Sets 04:02:35 0° 97° (E) 4,430 14.2 -8.3°
